TimeEST,TemperatureF,Dew PointF,Humidity,Sea Level PressureIn,VisibilityMPH,Wind Direction,Wind SpeedMPH,Gust SpeedMPH,PrecipitationIn,Events,Conditions,WindDirDegrees,DateUTC
12:51 AM,24.1,12.9,62,29.68,10.0,Variable,3.5,-,N/A,,Overcast,0,2013-02-04 05:51:00
1:51 AM,23.0,14.0,68,29.69,10.0,Variable,3.5,-,N/A,,Overcast,0,2013-02-04 06:51:00
2:51 AM,21.9,14.0,72,29.68,10.0,Calm,Calm,-,N/A,,Scattered Clouds,0,2013-02-04 07:51:00
3:51 AM,21.9,12.9,68,29.67,10.0,West,4.6,-,N/A,,Partly Cloudy,280,2013-02-04 08:51:00
6:51 AM,19.9,10.9,68,29.70,10.0,WNW,4.6,-,N/A,,Scattered Clouds,290,2013-02-04 11:51:00
7:51 AM,21.0,10.9,65,29.70,10.0,WNW,6.9,-,N/A,,Clear,290,2013-02-04 12:51:00
8:51 AM,23.0,10.0,58,29.71,10.0,WNW,10.4,23.0,N/A,,Partly Cloudy,290,2013-02-04 13:51:00
9:51 AM,25.0,7.0,46,29.72,10.0,WNW,13.8,25.3,N/A,,Scattered Clouds,300,2013-02-04 14:51:00
10:51 AM,26.1,3.9,39,29.71,10.0,WNW,13.8,21.9,N/A,,Scattered Clouds,300,2013-02-04 15:51:00
11:51 AM,26.1,1.9,35,29.70,10.0,WNW,15.0,26.5,N/A,,Mostly Cloudy,300,2013-02-04 16:51:00
12:51 PM,27.0,1.9,34,29.69,10.0,WNW,13.8,24.2,N/A,,Mostly Cloudy,300,2013-02-04 17:51:00
1:51 PM,28.0,-0.0,30,29.68,10.0,West,11.5,34.5,N/A,,Mostly Cloudy,280,2013-02-04 18:51:00
2:51 PM,28.0,-0.0,30,29.70,10.0,West,8.1,25.3,N/A,,Mostly Cloudy,280,2013-02-04 19:51:00
3:51 PM,26.1,1.0,34,29.72,10.0,West,8.1,17.3,N/A,,Clear,260,2013-02-04 20:51:00
4:51 PM,26.1,-2.0,30,29.72,10.0,Variable,6.9,21.9,N/A,,Partly Cloudy,0,2013-02-04 21:51:00
5:51 PM,24.1,-2.0,32,29.75,10.0,West,6.9,16.1,N/A,,Clear,270,2013-02-04 22:51:00
6:51 PM,23.0,-2.0,34,29.78,10.0,Variable,3.5,17.3,N/A,,Clear,0,2013-02-04 23:51:00
7:51 PM,21.9,-4.0,32,29.81,10.0,WNW,10.4,23.0,N/A,,Clear,290,2013-02-05 00:51:00
8:51 PM,21.0,-4.0,33,29.83,10.0,West,9.2,19.6,N/A,,Clear,280,2013-02-05 01:51:00
10:51 PM,19.0,-2.9,38,29.86,10.0,Variable,4.6,-,N/A,,Clear,0,2013-02-05 03:51:00
11:51 PM,18.0,-2.0,41,29.87,10.0,West,5.8,-,N/A,,Clear,260,2013-02-05 04:51:00